{"data":{"norad_id":66157,"epoch":"2026-09-20T07:29:10.356288Z","epoch_age_seconds":116655,"freshness":"FRESH","line1":"1 66157U 25240M   26263.31192542  .00014212  00000+0  43087-3 0  9998","line2":"2 66157  53.1598 234.7208 0001485  81.7804 278.3367 15.34407284 51842","mean_motion":15.34407284,"eccentricity":0.0001485,"inclination_deg":53.1598,"raan_deg":234.7208,"arg_perigee_deg":81.7804,"mean_anomaly_deg":278.3367,"bstar":0.00043087,"rev_number":5184,"period_min":93.847312575714,"perigee_km":461.665729149,"apogee_km":463.69745227044,"semimajor_km":6840.8185907097,"source":"CELESTRAK","updated_at":"2026-09-21T09:00:35.814411Z"}}